Tracking 19572 objects as of 24-Feb-2019
HD Live streaming from Space Station
objects crossing your sky now

GOES 1 (SMS-C)

Track GOES 1 (SMS-C) now!
GOES 1 (SMS-C) is classified as:


NORAD ID: 8366
Int'l Code: 1975-100A
Perigee: 35,759.3 km
Apogee: 35,807.6 km
Inclination: 11.0 °
Period: 1,435.6 minutes
Semi major axis: 42154 km
RCS: 3.1655 m2 (large)
Launch date: October 16, 1975
Source: United States (US)
Launch site: AIR FORCE EASTERN TEST RANGE (AFETR)
aabbcc
Your satellite tracking list
Your tracking list is empty




NASA's NSSDC Master Catalog

Two Line Element Set (TLE):
1  8366U 75100A   19053.27924458 -.00000029  00000-0  00000+0 0  9996
2  8366  10.9527 311.0152 0005732 336.3345 205.6225  1.00308413158417
Source of the keplerian elements: AFSPC